Location: Boissi�res
(45.2500°N, 2.3667°E)
Time: 05:14:09
(UTC+00:00)

Cosmos 2242 Rocket - Pass Details

Date: 03 March 2021
Orbit: 617 x 652 km, 82.5° (Epoch: 13 April)

Event Time Altitude Azimuth Distance (km) Brightness Sun altitude
Rises 19:05:45 0° 352° (N) 2,959 7.2 -15.8°
Reaches altitude 10° 19:08:01 10° 353° (N) 2,039 6.4 -16.2°
Maximum altitude 19:12:33 80° 80° (E) 649 3.5 -16.9°
Drops below altitude 10° 19:17:00 10° 169° (S) 2,000 6.0 -17.7°
Sets 19:19:12 0° 170° (S) 2,897 6.8 -18.1°
